Location: Unspecified
(0.0000°N, 0.0000°E)
Time: 13:29:26
(UTC+00:00)

Vanguard 1 Rocket - All Passes

Search period start: 07 October 2022 00:00
Search period end: 17 October 2022 00:00
Orbit: 650 x 4225 km, 34.3° (Epoch: 06 October)

Date Brightness Start Highest point End Pass type
(mag) Time Alt. Az. Time Alt. Az. Time Alt. Az.
07 Oct - 01:10:14 10° NNW 01:13:51 15° NNE 01:16:48 10° ENE night (unlit)
07 Oct - 03:34:53 10° WNW 03:39:27 55° SW 03:43:55 10° SE visible
07 Oct - 11:00:11 10° SSW 11:11:15 22° SSE 11:26:55 10° ESE daylight
07 Oct - 13:24:22 10° SW 13:44:03 61° SE 14:09:50 10° ENE daylight
07 Oct - 15:53:27 10° WSW 16:17:53 65° NW 16:41:06 10° NE daylight
07 Oct - 18:33:04 10° W 18:52:39 27° NNW 19:07:18 10° NNE visible
08 Oct - 00:00:40 10° N 00:01:13 10° NNE 00:01:45 10° NNE night (unlit)
08 Oct - 02:23:10 10° NW 02:28:35 53° NE 02:32:51 10° ESE visible
08 Oct - 04:51:52 10° SW 04:53:40 12° SSW 04:55:36 10° S visible
08 Oct - 09:51:55 10° S 09:56:20 12° SSE 10:01:35 10° SE daylight
08 Oct - 12:12:52 10° SSW 12:28:55 42° SE 12:52:21 10° ENE daylight
08 Oct - 14:39:22 10° SW 15:01:52 86° NW 15:27:34 10° NE daylight
08 Oct - 17:13:18 10° W 17:36:30 40° NW 17:55:43 10° NNE daylight
08 Oct - 20:02:25 10° NW 20:12:39 15° NNW 20:20:37 10° N visible
09 Oct - 01:11:35 10° NNW 01:17:09 25° NNE 01:21:09 10° E night (unlit)
09 Oct - 03:38:12 10° W 03:42:18 29° SW 03:46:15 10° SSE visible
09 Oct - 11:02:21 10° SSW 11:14:18 27° SE 11:32:05 10° E daylight
09 Oct - 13:26:42 10° SW 13:46:12 72° SE 14:12:38 10° ENE daylight
09 Oct - 15:56:34 10° WSW 16:20:14 55° NW 16:43:16 10° NE daylight
09 Oct - 18:38:25 10° WNW 18:56:10 23° NNW 19:09:45 10° NNE visible
09 Oct - 21:32:10 10° N 21:32:52 10° N 21:33:34 10° N visible
09 Oct - 23:59:51 10° NNW 00:04:50 16° NNE 00:08:35 10° NE night (unlit)
10 Oct - 02:25:43 10° NW 02:31:28 84° SW 02:35:50 10° SE visible
10 Oct - 09:53:21 10° S 09:59:56 15° SSE 10:08:31 10° ESE daylight
10 Oct - 12:15:08 10° SSW 12:31:16 51° SE 12:55:49 10° ENE daylight
10 Oct - 14:42:04 10° WSW 15:04:04 74° NW 15:29:50 10° NE daylight
10 Oct - 17:17:34 10° W 17:39:29 33° NNW 17:57:58 10° NNE daylight
10 Oct - 20:08:00 10° NW 20:16:56 14° NNW 20:24:01 10° NNE visible
10 Oct - 22:47:18 10° NNW 22:51:34 13° N 22:55:02 10° NNE visible
11 Oct - 01:13:29 10° NW 01:20:19 41° NNE 01:24:49 10° ESE night (unlit)
11 Oct - 03:42:08 10° WSW 03:45:10 17° SW 03:48:05 10° S visible
11 Oct - 11:04:30 10° SSW 11:17:01 33° SE 11:36:38 10° E daylight
11 Oct - 13:29:11 10° SW 13:48:22 84° SE 14:15:08 10° NE daylight
11 Oct - 16:00:01 10° WSW 16:22:49 47° NW 16:45:24 10° NE daylight
11 Oct - 18:44:05 10° WNW 19:00:05 20° NNW 19:12:30 10° NNE visible
11 Oct - 21:32:10 10° NNW 21:37:08 12° N 21:41:15 10° NNE visible
12 Oct - 00:01:05 10° NNW 00:08:19 24° NNE 00:13:04 10° ENE night (unlit)
12 Oct - 02:28:39 10° WNW 02:34:14 47° SW 02:38:29 10° SE visible
12 Oct - 09:55:05 10° S 10:03:10 18° SE 10:14:38 10° ESE daylight
12 Oct - 12:17:28 10° SW 12:33:29 61° SE 12:58:52 10° ENE daylight
12 Oct - 14:45:01 10° WSW 15:06:25 63° NW 15:31:58 10° NE daylight
12 Oct - 17:22:18 10° W 17:42:52 28° NNW 18:00:21 10° NNE daylight
12 Oct - 20:12:32 10° NNW 20:21:21 14° N 20:28:19 10° NNE visible
12 Oct - 22:48:02 10° NNW 22:55:21 18° NNE 23:00:29 10° NE visible
13 Oct - 01:15:45 10° NW 01:23:19 69° NE 01:28:02 10° ESE night (unlit)
13 Oct - 11:06:42 10° SSW 11:19:29 40° SE 11:40:36 10° ENE daylight
13 Oct - 13:31:50 10° SW 13:50:35 84° NW 14:17:26 10° NE daylight
13 Oct - 16:03:52 10° W 16:25:44 39° NNW 16:47:34 10° NNE daylight
13 Oct - 18:49:45 10° NW 19:04:20 18° NNW 19:15:45 10° NNE visible
13 Oct - 21:33:25 10° NNW 21:41:16 15° N 21:47:04 10° NE visible
14 Oct - 00:02:48 10° NW 00:11:38 37° NNE 00:16:54 10° E night (unlit)
14 Oct - 02:32:02 10° W 02:36:57 27° SW 02:40:48 10° SSE night (unlit)
14 Oct - 09:56:59 10° S 10:06:05 23° SE 10:19:58 10° E daylight
14 Oct - 12:19:55 10° SW 12:35:39 73° SE 13:01:33 10° ENE daylight
14 Oct - 14:48:16 10° WSW 15:08:59 54° NW 15:34:01 10° NE daylight
14 Oct - 17:27:29 10° WNW 17:46:39 25° NNW 18:03:00 10° NNE daylight
14 Oct - 20:15:53 10° NNW 20:25:47 15° N 20:33:17 10° NNE visible
14 Oct - 22:49:20 10° NNW 22:58:59 25° NNE 23:04:59 10° ENE visible
15 Oct - 01:18:19 10° WNW 01:26:08 73° SW 01:30:56 10° SE night (unlit)
15 Oct - 08:50:56 10° SSE 08:52:48 10° SE 08:54:50 10° SE daylight
15 Oct - 11:08:59 10° SSW 11:21:47 49° SE 11:44:01 10° ENE daylight
15 Oct - 13:34:41 10° WSW 13:52:57 72° NW 14:19:32 10° NE daylight
15 Oct - 16:08:10 10° W 16:28:59 33° NNW 16:49:50 10° NNE daylight
15 Oct - 18:54:56 10° NW 19:08:50 17° N 19:19:37 10° NNE visible
15 Oct - 21:34:50 10° NNW 21:45:13 20° NNE 21:52:10 10° ENE visible
16 Oct - 00:04:47 10° NW 00:14:46 56° NNE 00:20:19 10° ESE night (unlit)
16 Oct - 02:36:03 10° W 02:39:37 16° SW 02:42:36 10° S night (unlit)
16 Oct - 09:59:01 10° SSW 10:08:42 29° SE 10:24:34 10° E daylight
16 Oct - 12:22:30 10° SW 12:37:54 86° SE 13:03:56 10° NE daylight
16 Oct - 14:51:50 10° W 15:11:51 45° NNW 15:36:03 10° NE daylight
16 Oct - 17:32:54 10° WNW 17:50:50 22° NNW 18:06:03 10° NNE visible
16 Oct - 20:18:25 10° NNW 20:30:06 18° N 20:38:26 10° NE visible
16 Oct - 22:50:56 10° NW 23:02:26 35° NNE 23:08:57 10° E visible
